Freedom, CA

3:03 AM PST on December 03, 2016 (GMT -0800)
Watsonville Municipal

Weather History for KWVI - September, 2013

Change the Weather History Date:

Saturday, September 21, 2013

  Actual Average Record
Temperature  
Mean Temperature 62 °F 63 °F  
Max Temperature 70 °F 75 °F 97 °F (2003)
Min Temperature 54 °F 51 °F 44 °F (2004)
Degree Days  
Heating Degree Days 3    
Month to date heating degree days 16  
Since 1 July heating degree days 161  
Cooling Degree Days 0    
Month to date cooling degree days 42  
Year to date cooling degree days 111  
Growing Degree Days 10 (Base 50)    
Moisture  
Dew Point 57 °F    
Average Humidity 84    
Maximum Humidity 100    
Minimum Humidity 68    
Precipitation  
Precipitation 0.07 in - 0.07 in (2013)
Month to date precipitation 0.08  
Year to date precipitation 2.54  
Since 1 July precipitation 0.15  
Sea Level Pressure  
Sea Level Pressure 29.88 in    
Wind  
Wind Speed 6 mph (SSW)    
Max Wind Speed 18 mph    
Max Gust Speed 25 mph    
Visibility 9 miles    
Events Rain    
T = Trace of Precipitation, MM = Missing Value Source: NWS Daily Summary

Daily Weather History Graph

Daily Weather History Graph

Search for Another Location

Airport or City:

Trip Planner

Search our weather history database for the weather conditions in past years. The results will help you decide how hot, cold, wet, or windy it might be!

Date:

Astronomy

Sep. 21, 2013 Rise Set
Actual Time 6:54 AM PDT 7:05 PM PDT
Civil Twilight 6:28 AM PDT 7:30 PM PDT
Nautical Twilight 5:58 AM PDT 8:01 PM PDT
Astronomical Twilight 5:27 AM PDT 8:31 PM PDT
Moon 8:24 PM PDT (9/21) 9:14 AM PDT (9/21)
Length of Visible Light 13h 02m
Length of Day
12h 10m
Waning Gibbous, 94% of the Moon is Illuminated
Sep 21
Waning Gibbous
Sep 26
Last Quarter
Oct 4
New
Oct 11
First Quarter
Oct 18
Full

Hourly Weather History & Observations

Time (PDT) Temp. Dew Point Humidity Pressure Visibility Wind Dir Wind Speed Gust Speed Precip Events Conditions
12:45 AM 60.8 °F 59.0 °F 94% 29.88 in 10.0 mi SSW 4.6 mph - N/A   Overcast
12:53 AM 61.0 °F 59.0 °F 93% 29.88 in 10.0 mi SW 3.5 mph - N/A   Overcast
1:17 AM 62.6 °F 59.0 °F 88% 29.88 in 10.0 mi SW 3.5 mph - N/A   Overcast
1:53 AM 61.0 °F 57.9 °F 90% 29.88 in 10.0 mi Calm Calm - N/A   Overcast
2:16 AM 62.6 °F 57.2 °F 82% 29.88 in 10.0 mi Calm Calm - N/A   Overcast
2:43 AM 62.6 °F 57.2 °F 82% 29.87 in 10.0 mi Calm Calm - N/A   Overcast
2:53 AM 62.1 °F 57.9 °F 86% 29.86 in 10.0 mi Calm Calm - N/A   Overcast
3:53 AM 61.0 °F 57.9 °F 90% 29.86 in 4.0 mi Calm Calm - 0.00 in Rain Light Rain
4:53 AM 61.0 °F 57.9 °F 90% 29.85 in 3.0 mi SSW 5.8 mph - 0.01 in Rain Light Rain
5:03 AM 60.8 °F 59.0 °F 94% 29.85 in 2.0 mi SSW 4.6 mph - 0.01 in Rain Light Rain
5:19 AM 60.8 °F 60.8 °F 100% 29.85 in 5.0 mi SSW 10.4 mph - 0.02 in   Overcast
5:44 AM 60.8 °F 60.8 °F 100% 29.85 in 4.0 mi SSW 9.2 mph - 0.03 in Rain Light Rain
5:53 AM 60.1 °F 60.1 °F 100% 29.86 in 3.0 mi SSW 10.4 mph - 0.04 in   Overcast
6:13 AM 59.0 °F 59.0 °F 100% 29.86 in 8.0 mi SSW 6.9 mph - 0.00 in Rain Light Rain
6:35 AM 59.0 °F 59.0 °F 100% 29.86 in 8.0 mi SSW 5.8 mph - 0.00 in Rain Light Rain
6:44 AM 59.0 °F 59.0 °F 100% 29.86 in 6.0 mi South 4.6 mph - 0.00 in Rain Light Rain
6:53 AM 59.0 °F 59.0 °F 100% 29.86 in 5.0 mi South 4.6 mph - 0.01 in Rain Light Rain
7:53 AM 59.0 °F 59.0 °F 100% 29.87 in 6.0 mi South 5.8 mph - 0.00 in   Overcast
8:53 AM 60.1 °F 60.1 °F 100% 29.88 in 10.0 mi South 3.5 mph - N/A   Overcast
9:53 AM 62.1 °F 59.0 °F 90% 29.88 in 10.0 mi South 3.5 mph - N/A   Overcast
10:09 AM 62.6 °F 59.0 °F 88% 29.89 in 10.0 mi SSW 6.9 mph - N/A   Overcast
10:53 AM 64.0 °F 59.0 °F 84% 29.90 in 10.0 mi SSW 10.4 mph - N/A   Mostly Cloudy
11:10 AM 64.4 °F 59.0 °F 83% 29.89 in 10.0 mi South 9.2 mph - N/A   Mostly Cloudy
11:53 AM 66.0 °F 57.9 °F 75% 29.89 in 10.0 mi SW 10.4 mph - N/A   Mostly Cloudy
12:38 PM 66.2 °F 57.2 °F 73% 29.88 in 10.0 mi SSW 11.5 mph - N/A   Overcast
12:53 PM 66.0 °F 55.9 °F 70% 29.88 in 10.0 mi SSW 16.1 mph 19.6 mph N/A   Overcast
1:53 PM 63.0 °F 57.0 °F 81% 29.87 in 10.0 mi SSW 11.5 mph 20.7 mph N/A   Overcast
2:40 PM 64.4 °F 57.2 °F 77% 29.87 in 10.0 mi SSW 11.5 mph 21.9 mph 0.00 in   Overcast
2:53 PM 66.0 °F 57.0 °F 73% 29.87 in 10.0 mi SSW 15.0 mph - 0.00 in   Overcast
3:53 PM 64.9 °F 57.0 °F 75% 29.86 in 10.0 mi SW 10.4 mph - N/A   Overcast
4:23 PM 62.6 °F 57.2 °F 82% 29.86 in 7.0 mi SW 9.2 mph 17.3 mph 0.01 in   Overcast
4:53 PM 63.0 °F 57.0 °F 81% 29.87 in 10.0 mi SW 8.1 mph - 0.01 in   Mostly Cloudy
5:10 PM 64.4 °F 57.2 °F 77% 29.87 in 10.0 mi WSW 8.1 mph - N/A   Overcast
5:53 PM 63.0 °F 55.9 °F 78% 29.86 in 10.0 mi SSW 8.1 mph - N/A   Scattered Clouds
6:28 PM 60.8 °F 55.4 °F 82% 29.87 in 10.0 mi Variable 4.6 mph - N/A   Mostly Cloudy
6:53 PM 60.1 °F 55.9 °F 86% 29.87 in 10.0 mi SW 6.9 mph - N/A   Overcast
7:53 PM 60.1 °F 55.9 °F 86% 29.89 in 10.0 mi Variable 3.5 mph - N/A   Mostly Cloudy
8:27 PM 59.0 °F 55.4 °F 88% 29.90 in 10.0 mi Calm Calm - N/A   Scattered Clouds
8:53 PM 57.9 °F 55.0 °F 90% 29.91 in 10.0 mi Calm Calm - N/A   Scattered Clouds
9:44 PM 57.2 °F 55.4 °F 94% 29.92 in 10.0 mi Calm Calm - N/A   Mostly Cloudy
9:53 PM 57.9 °F 55.0 °F 90% 29.92 in 10.0 mi Calm Calm - N/A   Mostly Cloudy
10:11 PM 57.2 °F 55.4 °F 94% 29.91 in 10.0 mi West 3.5 mph - N/A   Scattered Clouds
10:53 PM 55.9 °F 53.1 °F 90% 29.92 in 10.0 mi WNW 3.5 mph - N/A   Partly Cloudy
11:36 PM 53.6 °F 51.8 °F 94% 29.93 in 10.0 mi NNW 3.5 mph - N/A   Mostly Cloudy
11:53 PM 55.0 °F 52.0 °F 89% 29.93 in 10.0 mi Calm Calm - N/A   Overcast